[[{"header":{"parameterUnit":"m.s-1","parameterCategory":1,"la1":30.2991,"la2":30.254,"lo1":-89.0895,"lo2":-89.0444,"dy":0.0017,"dx":0.0017,"nx":28,"ny":28,"refTime":"2023-10-13T03:00:00:Z","depth":0,"parameterNumber":2,"parameterNumberName":"U-component_of_WINDS"},"data":[0,0,0,0,0,0,0,0,0,0,0,0,0,0,0,0,0,0,0,0,0,0,0,0,0,0,0,0,0,0,0,0,0,0,0,0,0,0,0,0,0,0,0,0,0,0,0,0,0,0,0,0,0,0,0,0,0,0,-2.5695,-2.5695,0,-2.5729,-2.5729,-2.573,-2.5651,-2.5648,-2.5646,-2.5643,-2.5678,-2.5681,-2.5684,0,0,0,0,0,0,0,0,0,0,0,0,0,-2.556,-2.5563,-2.5695,-2.5695,-2.5696,-2.5729,-2.5729,-2.573,-2.5651,-2.5648,-2.5645,-2.5642,-2.5677,-2.5681,-2.5684,0,0,0,0,0,0,0,0,0,0,0,0,0,-2.5609,-2.5564,-2.5695,-2.5661,-2.5658,-2.5729,-2.5729,-2.573,-2.5652,-2.5648,-2.5644,-2.5641,-2.5675,-2.568,-2.5685,-2.579,0,0,-2.57,-2.5702,0,0,0,0,0,0,0,0,-2.5606,-2.5614,-2.5665,-2.5663,-2.566,-2.5682,-2.5694,-2.575,-2.5653,-2.5654,-2.5643,-2.5639,-2.5682,-2.5686,-2.5701,-2.5792,-2.5794,-2.57,-2.5703,-2.5705,-2.5707,0,0,0,0,0,0,0,-2.5603,-2.5612,-2.5708,-2.5666,-2.5663,-2.5643,-2.5646,-2.5704,-2.5689,-2.5654,-2.5648,-2.5653,-2.568,-2.5696,-2.5701,-2.5794,-2.57,-2.5705,-2.5708,-2.5709,-2.5971,-2.5975,0,0,0,0,0,0,-2.5604,-2.561,-2.5707,-2.5709,-2.5623,-2.5648,-2.5651,-2.5679,-2.5688,-2.5686,-2.5656,-2.5649,-2.569,-2.5695,-2.5702,-2.5825,-2.5705,-2.571,-2.5713,-2.5967,-2.5972,-2.5977,0,0,0,0,0,0,-2.5602,-2.5614,-2.5706,-2.5658,-2.5668,-2.5655,-2.5686,-2.5681,-2.5698,-2.569,-2.5687,-2.5676,-2.5687,-2.5695,-2.5769,-2.5825,-2.5712,-2.5717,-2.5963,-2.5969,-2.5975,-2.6073,0,0,0,0,0,0,-2.5598,-2.5613,-2.5654,-2.566,-2.5671,-2.5773,-2.5689,-2.5685,-2.5706,-2.5697,-2.5708,-2.5706,-2.5685,-2.5762,-2.5774,-2.583,-2.572,-2.5958,-2.5965,-2.5973,-2.6065,-2.6082,-2.6096,0,0,0,0,0,-2.5594,-2.5681,-2.5656,-2.5669,-2.5722,-2.5776,-2.5783,-2.5757,-2.5711,-2.5751,-2.5746,-2.5705,-2.5817,-2.577,-2.5783,-2.5841,-2.5954,-2.5963,-2.5972,-2.6058,-2.6078,-2.6096,0,0,0,0,0,0,-2.5682,-2.5681,-2.5654,-2.5745,-2.5762,-2.5763,-2.5813,-2.578,-2.581,-2.5801,-2.5767,-2.577,-2.585,-2.5852,-2.58,-2.5943,-2.5877,-2.589,-2.5938,-2.5958,-2.5974,-2.5971,-2.5724,0,0,0,0,0,-2.5712,-2.5757,-2.5753,-2.5835,-2.5844,-2.5827,-2.585,-2.5829,-2.5844,-2.5851,-2.5851,-2.5867,-2.5905,-2.5932,-2.5967,-2.6064,-2.6065,-2.6111,-2.6126,-2.6139,-2.6151,-2.6201,-2.6221,-2.6006,-2.6006,-2.6006,0,0,-2.5775,-2.578,-2.5811,-2.5852,-2.5862,-2.5909,-2.5834,-2.5887,-2.5921,-2.5859,-2.5928,-2.5929,-2.5944,-2.603,-2.6068,-2.6035,-2.621,-2.6151,-2.6162,-2.6165,-2.6212,-2.6233,-2.6251,-2.6013,-2.6012,-2.6011,0,0,-2.5914,-2.5922,-2.599,-2.6001,-2.6017,-2.6005,-2.6022,-2.6028,-2.6026,-2.6095,-2.6049,-2.6088,-2.6155,-2.6168,-2.6183,-2.6324,-2.6288,-2.6337,-2.642,-2.6469,-2.6486,-2.6501,-2.6551,-2.6569,-2.6347,-2.6348,-2.6348,0,-2.599,-2.6059,-2.6029,-2.6085,-2.6104,-2.6049,-2.6117,-2.613,-2.6156,-2.617,-2.6133,-2.6215,-2.6222,-2.6309,-2.6344,-2.6358,-2.6375,-2.6336,-2.6486,-2.6501,-2.6514,-2.6561,-2.658,-2.6354,-2.6353,-2.6352,-2.6352,0,-2.6152,-2.62,-2.6253,-2.628,-2.6305,-2.6366,-2.6345,-2.6374,-2.6349,-2.6341,-2.6411,-2.6417,-2.6452,-2.647,-2.6448,-2.6554,-2.6533,-2.6492,-2.6425,-2.6541,-2.6584,-2.6602,-2.6362,-2.636,-2.6358,-2.6357,0,0,-2.635,-2.6357,-2.6377,-2.6388,-2.64,-2.6437,-2.6495,-2.6528,-2.6553,-2.6573,-2.6621,-2.6678,-2.6639,-2.6656,-2.6634,-2.6678,-2.6788,-2.663,-2.663,-2.6659,-2.6905,-2.6936,-2.6958,-2.6763,-2.6766,-2.6769,-2.6903,0,-2.6486,-2.6587,-2.656,-2.666,-2.6704,-2.6651,-2.6702,-2.6714,-2.6708,-2.6743,-2.6735,-2.6776,-2.6722,-2.6732,-2.6772,-2.6766,-2.6837,-2.6756,-2.6807,-2.6809,-2.6805,-2.6981,-2.7014,-2.7141,-2.692,-2.6923,-2.6925,0,-2.666,-2.6685,-2.679,-2.6793,-2.681,-2.6857,-2.6884,-2.6919,-2.6932,-2.6923,-2.6942,-2.691,-2.6967,-2.69,-2.6976,-2.6922,-2.6941,-2.6941,-2.6945,-2.6949,-2.6875,-2.6989,-2.7181,-2.72,-2.6952,-2.695,-2.6948,0,-2.6793,-2.6853,-2.6923,-2.6934,-2.694,-2.6973,-2.6977,-2.6986,-2.7007,-2.7031,-2.7045,-2.7075,-2.7092,-2.7116,-2.7093,-2.7046,-2.7173,-2.7104,-2.7167,-2.7168,-2.7197,-2.7196,-2.7394,-2.7209,-2.7209,-2.7209,-2.7208,0,-2.6949,-2.7014,-2.6983,-2.7026,-2.7097,-2.7065,-2.7137,-2.7135,-2.7143,-2.7184,-2.714,-2.7179,-2.7146,-2.7182,-2.7165,-2.723,-2.7238,-2.7233,-2.7228,-2.7237,-2.7238,-2.7249,-2.724,-2.7214,-2.7213,-2.7212,-2.7211,0,-2.711,-2.7091,-2.7164,-2.7163,-2.7164,-2.7217,-2.7216,-2.7255,-2.7244,-2.7297,-2.7307,-2.729,-2.733,-2.7309,-2.7351,-2.7339,-2.7424,-2.7407,-2.742,-2.7415,-2.748,-2.7474,-2.7693,-2.772,-2.7518,-2.752,-2.7521,0,-2.7211,-2.726,-2.7264,-2.7288,-2.7295,-2.7335,-2.7356,-2.7326,-2.7349,-2.7366,-2.7403,-2.7439,-2.7467,-2.7533,-2.7524,-2.7555,-2.7538,-2.7613,-2.7543,-2.7551,-2.7539,-2.7537,-2.7541,-2.7627,-2.763,-2.7632,-2.7633,0,-2.7392,-2.7379,-2.7412,-2.7441,-2.7467,-2.7488,-2.7506,-2.7528,-2.7498,-2.7527,-2.7567,-2.7588,-2.763,-2.7666,-2.7692,-2.7695,-2.766,-2.7655,-2.7671,-2.7682,-2.7687,-2.7685,-2.7458,-2.765,-2.7649,-2.7647,-2.7646,-2.7646,-2.7525,-2.7566,-2.7575,-2.7612,-2.7621,-2.7638,-2.7675,-2.7668,-2.7701,-2.7732,-2.7712,-2.7759,-2.7769,-2.78,-2.7808,-2.7844,-2.7814,-2.7838,-2.7844,-2.785,-2.7859,-2.7681,-2.7849,-2.7848,-2.7848,-2.7847,-2.7847,0,-2.7703,-2.7706,-2.774,-2.7765,-2.7794,-2.7757,-2.7774,-2.78,-2.7842,-2.7854,-2.7881,-2.7927,-2.7961,-2.7954,-2.7985,-2.8015,-2.7999,-2.8024,-2.8022,-2.8023,-2.7884,-2.7867,-2.8037,-2.8036,-2.8036,-2.8036,-2.8036,-2.8036,-2.78,-2.7866,-2.7855,-2.7925,-2.7926,-2.7972,-2.7985,-2.8,-2.8009,-2.8061,-2.8089,-2.8085,-2.8089,-2.8119,-2.8149,-2.8145,-2.8159,-2.819,-2.8181,-2.8052,-2.8033,-2.8015,-2.7999,-2.8193,-2.8193,-2.8317,-2.8318,-2.8319]},{"header":{"parameterUnit":"m.s-1","parameterCategory":1,"la1":30.2991,"la2":30.254,"lo1":-89.0895,"lo2":-89.0444,"dy":0.0017,"dx":0.0017,"nx":28,"ny":28,"refTime":"2023-10-13T03:00:00:Z","depth":0,"parameterNumber":3,"parameterNumberName":"V-component_of_WINDS"},"data":[0,0,0,0,0,0,0,0,0,0,0,0,0,0,0,0,0,0,0,0,0,0,0,0,0,0,0,0,0,0,0,0,0,0,0,0,0,0,0,0,0,0,0,0,0,0,0,0,0,0,0,0,0,0,0,0,0,0,-3.3509,-3.351,0,-3.3587,-3.3588,-3.3589,-3.3576,-3.3575,-3.3574,-3.3572,-3.3647,-3.365,-3.3654,0,0,0,0,0,0,0,0,0,0,0,0,0,-3.3345,-3.3349,-3.3509,-3.351,-3.3511,-3.3587,-3.3588,-3.3589,-3.3576,-3.3575,-3.3573,-3.3572,-3.3646,-3.365,-3.3654,0,0,0,0,0,0,0,0,0,0,0,0,0,-3.3419,-3.335,-3.3509,-3.3514,-3.3516,-3.3587,-3.3588,-3.3589,-3.3577,-3.3575,-3.3573,-3.3571,-3.3645,-3.365,-3.3654,-3.3724,0,0,-3.3669,-3.3671,0,0,0,0,0,0,0,0,-3.3415,-3.3425,-3.3513,-3.3514,-3.3516,-3.357,-3.3558,-3.3634,-3.3577,-3.3553,-3.3572,-3.357,-3.3623,-3.3629,-3.3648,-3.3727,-3.3731,-3.367,-3.3673,-3.3675,-3.3676,0,0,0,0,0,0,0,-3.341,-3.3422,-3.354,-3.3514,-3.3516,-3.3511,-3.3519,-3.3572,-3.3598,-3.3555,-3.3555,-3.3564,-3.3623,-3.3644,-3.365,-3.3732,-3.367,-3.3674,-3.3677,-3.3679,-3.387,-3.3872,0,0,0,0,0,0,-3.3404,-3.3418,-3.3537,-3.3542,-3.346,-3.3516,-3.3525,-3.3554,-3.3598,-3.3602,-3.3566,-3.3563,-3.3636,-3.3644,-3.3652,-3.3736,-3.3675,-3.3679,-3.3682,-3.3868,-3.3871,-3.3873,0,0,0,0,0,0,-3.3401,-3.3415,-3.3534,-3.348,-3.3495,-3.3521,-3.3554,-3.3557,-3.3577,-3.3606,-3.361,-3.3582,-3.3635,-3.3646,-3.3706,-3.3738,-3.3681,-3.3686,-3.3865,-3.3869,-3.3872,-3.3903,0,0,0,0,0,0,-3.3396,-3.3414,-3.3442,-3.3481,-3.3498,-3.3588,-3.3556,-3.356,-3.3586,-3.3584,-3.3622,-3.3626,-3.3634,-3.3699,-3.3711,-3.3744,-3.369,-3.3863,-3.3867,-3.3871,-3.3899,-3.3907,-3.3914,0,0,0,0,0,-3.339,-3.3447,-3.3443,-3.3458,-3.3533,-3.359,-3.36,-3.3609,-3.3589,-3.3616,-3.3634,-3.3625,-3.3733,-3.3705,-3.3719,-3.3753,-3.3861,-3.3866,-3.387,-3.3896,-3.3905,-3.3913,0,0,0,0,0,0,-3.3409,-3.3452,-3.3448,-3.352,-3.3552,-3.3588,-3.3623,-3.3619,-3.3656,-3.3652,-3.3661,-3.367,-3.3731,-3.3748,-3.3717,-3.3822,-3.3794,-3.3801,-3.3808,-3.3818,-3.3825,-3.3819,-3.3694,0,0,0,0,0,-3.3422,-3.3467,-3.3501,-3.356,-3.3576,-3.3597,-3.3622,-3.3627,-3.366,-3.3673,-3.3695,-3.3726,-3.3767,-3.3793,-3.3832,-3.3902,-3.3909,-3.3932,-3.3939,-3.3945,-3.3951,-3.3988,-3.3998,-3.3889,-3.3889,-3.3889,0,0,-3.3448,-3.3477,-3.3504,-3.3565,-3.359,-3.3634,-3.3608,-3.3656,-3.3688,-3.3679,-3.3738,-3.3756,-3.379,-3.3856,-3.3885,-3.3872,-3.3983,-3.3951,-3.3956,-3.3959,-3.3994,-3.4004,-3.4013,-3.3892,-3.3892,-3.3891,0,0,-3.3519,-3.3546,-3.3598,-3.3624,-3.3663,-3.3676,-3.3689,-3.3726,-3.3738,-3.3797,-3.3791,-3.3828,-3.3899,-3.3923,-3.3945,-3.4024,-3.4017,-3.4037,-3.4074,-3.4109,-3.4118,-3.4125,-3.4152,-3.4162,-3.4043,-3.4043,-3.4043,0,-3.3546,-3.3614,-3.3625,-3.3673,-3.3699,-3.3694,-3.3746,-3.377,-3.3819,-3.3836,-3.3821,-3.3908,-3.3932,-3.4002,-3.4021,-3.4039,-3.4052,-3.4032,-3.4116,-3.4124,-3.4131,-3.4156,-3.4167,-3.4045,-3.4045,-3.4045,-3.4044,0,-3.3645,-3.3692,-3.3729,-3.3778,-3.3808,-3.3858,-3.3874,-3.3903,-3.3904,-3.3919,-3.3978,-3.4006,-3.405,-3.4067,-3.4069,-3.4137,-3.4128,-3.4114,-3.4086,-3.4143,-3.4167,-3.4177,-3.4048,-3.4047,-3.4047,-3.4046,0,0,-3.373,-3.3784,-3.3797,-3.3819,-3.3861,-3.3897,-3.3945,-3.399,-3.4014,-3.4048,-3.4087,-3.4147,-3.4134,-3.4159,-3.4163,-3.4195,-3.4254,-3.4177,-3.4178,-3.4189,-3.4329,-3.4338,-3.435,-3.4249,-3.4251,-3.4253,-3.4326,0,-3.3803,-3.3891,-3.3902,-3.3979,-3.4021,-3.4017,-3.4059,-3.4088,-3.4103,-3.414,-3.4155,-3.4197,-3.4178,-3.4192,-3.4223,-3.424,-3.4282,-3.4235,-3.4285,-3.4286,-3.4275,-3.4363,-3.4373,-3.444,-3.4335,-3.4337,-3.4338,0,-3.3901,-3.3939,-3.402,-3.4056,-3.4074,-3.4112,-3.4153,-3.4189,-3.4222,-3.423,-3.4258,-3.4258,-3.4306,-3.4276,-3.4342,-3.431,-3.4331,-3.4342,-3.4345,-3.4349,-3.4315,-3.4368,-3.4462,-3.4472,-3.4353,-3.4352,-3.4351,0,-3.3953,-3.4024,-3.4082,-3.4101,-3.4144,-3.4171,-3.419,-3.4221,-3.4246,-3.4282,-3.4298,-3.4338,-3.4359,-3.439,-3.44,-3.4377,-3.4465,-3.4436,-3.4471,-3.4471,-3.4489,-3.4487,-3.4587,-3.4504,-3.4504,-3.4504,-3.4504,0,-3.4033,-3.4083,-3.4106,-3.4141,-3.4196,-3.4207,-3.4261,-3.4278,-3.4306,-3.4343,-3.4342,-3.4377,-3.4389,-3.4425,-3.4433,-3.4485,-3.4495,-3.4502,-3.4503,-3.4502,-3.4501,-3.4515,-3.451,-3.4507,-3.4506,-3.4505,-3.4505,0,-3.41,-3.4118,-3.418,-3.4217,-3.4227,-3.4266,-3.4296,-3.4329,-3.4343,-3.439,-3.4402,-3.4423,-3.4466,-3.4479,-3.4531,-3.4536,-3.4597,-3.4594,-3.4586,-3.4586,-3.462,-3.4616,-3.4731,-3.4745,-3.4654,-3.4655,-3.4656,0,-3.415,-3.4188,-3.4229,-3.4254,-3.4275,-3.4316,-3.4343,-3.4354,-3.4381,-3.4421,-3.4449,-3.4492,-3.4526,-3.4594,-3.4613,-3.4652,-3.465,-3.4688,-3.4656,-3.4652,-3.4649,-3.4646,-3.4649,-3.4693,-3.4694,-3.4695,-3.4695,0,-3.4236,-3.4242,-3.4281,-3.4323,-3.4355,-3.4388,-3.442,-3.444,-3.4456,-3.4487,-3.4531,-3.4558,-3.4611,-3.4652,-3.4692,-3.4709,-3.4704,-3.4705,-3.4715,-3.4713,-3.4707,-3.4709,-3.4601,-3.4703,-3.4702,-3.4701,-3.4701,-3.4701,-3.4295,-3.4328,-3.4362,-3.4405,-3.443,-3.446,-3.4493,-3.4511,-3.4549,-3.4593,-3.4598,-3.4645,-3.4675,-3.4728,-3.4747,-3.4783,-3.4772,-3.4787,-3.4791,-3.4794,-3.4796,-3.4702,-3.4791,-3.4791,-3.479,-3.479,-3.479,0,-3.4379,-3.4401,-3.444,-3.4485,-3.4519,-3.4513,-3.4548,-3.4576,-3.4618,-3.4647,-3.4682,-3.4732,-3.4772,-3.4794,-3.4834,-3.4858,-3.4857,-3.4868,-3.4866,-3.487,-3.4804,-3.4791,-3.4868,-3.4868,-3.4868,-3.4868,-3.4868,-3.4868,-3.4427,-3.4483,-3.4494,-3.4562,-3.4582,-3.463,-3.465,-3.4677,-3.47,-3.4757,-3.479,-3.4805,-3.4831,-3.4873,-3.4909,-3.4914,-3.4928,-3.494,-3.4944,-3.4882,-3.4874,-3.4867,-3.4854,-3.4944,-3.4944,-3.5007,-3.5007,-3.5008]}]]